Hourly Weather Roundup
Issued by NWS Central Illinois

Home | Current Version | Previous Version | Text Only | Print | Product List | Glossary On
Versions: 1 2 3 4 5 6 7 8 9 10 11 12 13 14 15 16 17 18 19 20 21 22 23 24 25 26 27 28 29 30 31 32 33 34 35 36 37 38 39 40 41 42 43 44 45 46 47 48 49 50
474
NZUS43 KILX 290110
HWRILX

AREA WEATHER ROUNDUP
NATIONAL WEATHER SERVICE, LINCOLN IL
800 PM CDT TUE MAR 28 2017


CITY           SKY/WX    TMP DP  RH WIND       PRES   REMARKS
BLOOMINGTON    CLOUDY    46  41  82 NE12      30.15S
CHAMPAIGN      CLOUDY    49  40  71 NE12      30.14R
DECATUR        CLOUDY    51  43  74 NE15      30.12R
EFFINGHAM      CLOUDY    56  48  75 N5        30.11S
FLORA          CLOUDY    59  49  69 NE8       30.09R
GALESBURG      CLOUDY    48  42  81 NE10      30.14S
JACKSONVILLE   CLOUDY    51  47  85 NE9       30.12R
LACON          CLOUDY    47  41  82 E7        30.16S
LAWRENCEVILLE  CLOUDY    59  50  72 N9        30.09R
LITCHFIELD     CLOUDY    53  47  80 NE10      30.10S
$$


CITY           SKY/WX    TMP DP  RH WIND       PRES   REMARKS
LINCOLN        CLOUDY    50  46  85 NE13      30.13F
MACOMB         CLOUDY    50  46  86 NE10      30.15R
MATTOON        CLOUDY    52  46  80 NE15      30.11R
MT CARMEL AP   CLOUDY    59  50  71 NE5       30.09R
OLNEY-NOBLE AP MOCLDY    55  50  82 NE9       30.09R
PARIS          CLOUDY    49  44  81 N9        30.14R
PEORIA         CLOUDY    50  43  77 NE8       30.14S
PONTIAC        CLOUDY    47  44  90 E5        30.17S
RANTOUL        CLOUDY    47  41  79 NE10      30.16R
SPRINGFIELD    CLOUDY    53  46  77 NE7       30.12S
TAYLORVILLE    CLOUDY    52  46  82 NE8       30.11F
$$

...REGIONAL REPORTS...


CITY           SKY/WX    TMP DP  RH WIND       PRES   REMARKS
CHICAGO O`HARE CLOUDY    42  36  79 NE5       30.18R
KANKAKEE       CLOUDY    42  37  82 NE8       30.19R
MOLINE         CLOUDY    48  39  71 NE8       30.16R
MOUNT STERLING CLOUDY    51  46  84 NE6       30.11R
MOUNT VERNON   CLOUDY    59  49  69 N3        30.08R
PITTSFIELD     CLOUDY    53  47  81 NE7       30.12R
QUINCY         CLOUDY    52  47  83 NE9       30.10R
ROCKFORD       PTCLDY    49  37  63 E10       30.19R
$$


CITY           SKY/WX    TMP DP  RH WIND       PRES   REMARKS
BURLINGTON     CLOUDY    50  45  83 E7        30.12S
CEDAR RAPIDS   CLOUDY    47  43  86 E5        30.14R
DES MOINES     CLOUDY    51  43  74 E5        30.14R
KIRKSVILLE     CLOUDY    52  46  80 NE7       30.11R
OTTUMWA        CLOUDY    50  48  93 NE6       30.13R
ST LOUIS       CLOUDY    57  48  72 NE10      30.08S
$$


CITY           SKY/WX    TMP DP  RH WIND       PRES   REMARKS
TERRE HAUTE    CLOUDY    54  45  71 N8        30.12R
EVANSVILLE     CLEAR     55  49  80 CALM      30.08R
INDIANAPOLIS   CLOUDY    52  44  74 N8        30.12R
LAFAYETTE      CLOUDY    46  42  86 N8        30.15R
MADISON        CLEAR     48  37  65 NE7       30.16R
MILWAUKEE      FOG       36  34  92 NE9       30.21R VSB 1/8 WCI  29
$$






USA.gov is the U.S. government's official web portal to all federal, state and local government web resources and services.